AirNav   TITAN Aviation Fuels
 
 474 users online  

4T2 Kenneth Copeland Airport
Fort Worth, Texas, USA

GOING TO FORT WORTH?


FAA INFORMATION EFFECTIVE 15 JULY 2021

Location

FAA Identifier: 4T2
Lat/Long: 32-58-39.4742N 097-29-32.2572W
32-58.657903N 097-29.537620W
32.9776317,-97.4922937
(estimated)
Elevation: 693 ft. / 211.2 m (surveyed)
Variation: 04E (2015)
From city: 18 miles NW of FORT WORTH, TX
Time zone: UTC -5 (UTC -6 during Standard Time)
Zip code: 76179

Airport Operations

Airport use: Open to the public
Activation date: 03/1981
Control tower: no
ARTCC: FORT WORTH CENTER
FSS: FORT WORTH FLIGHT SERVICE STATION
NOTAMs facility: FTW (NOTAM-D service available)
Attendance: UNATNDD
Wind indicator: lighted
Segmented circle: no
Lights: ACTVT LIRL RY 17/35 & TWY - CTAF.
Beacon: white-green (lighted land airport)
Operates sunset to sunrise.

Airport Communications

CTAF/UNICOM: 123.075
REGIONAL APPROACH: 125.8
REGIONAL DEPARTURE: 125.8
WX ASOS at AFW (9 nm E): PHONE 817-491-6188
WX ASOS at FTW (12 nm SE): PHONE 817-740-3346
WX AWOS-3 at LUD (17 nm N): 118.225 (940-627-2365)
WX ASOS at DTO (20 nm NE): 119.325 (940-383-8457)

Nearby radio navigation aids

VOR radial/distance  VOR name  Freq  Var
FUZr283/16.6RANGER VORTAC115.7006E
TTTr280/23.7MAVERICK VOR/DME113.1006E
MQPr050/29.6MILLSAP VORTAC117.7009E
CVEr274/30.1COWBOY VOR/DME116.2006E
UKWr148/37.3BOWIE VORTAC117.1506E

 
NDB name  Hdg/Dist  Freq  Var  ID
MUFIN302/7.936508EFT ..-. -

Airport Services

Runway Information

Runway 17/35

Dimensions: 5943 x 127 ft. / 1811 x 39 m
Surface: asphalt/concrete, in poor condition
OUTER 50 FT OF EACH SIDE OF RY IS ASPH, CENTER 40 FT IS CONC ON RY 17 END; ASPH ON RY 35 END. ASPH CRACKING W. LOOSE AGGREGATE.
Runway edge lights: low intensity
RUNWAY 17  RUNWAY 35
Latitude: 32-59.146348N32-58.169458N
Longitude: 097-29.584168W097-29.491070W
Elevation: 687.5 ft.660.1 ft.
Traffic pattern: leftleft
Runway heading: 171 magnetic, 175 true351 magnetic, 355 true
Markings: nonprecision, in good conditionnonprecision, in good condition
Touchdown point: yes, no lightsyes, no lights
Obstructions: 18 ft. ant, 484 ft. from runway, 250 ft. left of centerline, 15:1 slope to clear
10 FT ROAD 0-40 FT' FM RY END 0 FT BOTH SIDES.
50 ft. trees, 1200 ft. from runway, 20:1 slope to clear
10 FT ROAD 0 FT DST 130 R; 5 FT FENCE 0-200 FT FM RY END 165 FT R.

Airport Ownership and Management from official FAA records

Ownership: Privately-owned
Owner: KEN COPELAND MINISTRIES
14355 MORRIS DIDO RD.
NEWARK, TX 76071
Phone 817-252-3501
Manager: DAVID MOON
14355 MORRIS DIDO RD
NEWARK, TX 76071
Phone 817-252-3520

Airport Operational Statistics

Aircraft based on the field: 5
Single engine airplanes: 3
Jet airplanes: 2
    
Aircraft operations: avg 52/week *
67% local general aviation
33% transient general aviation
* for 12-month period ending 31 December 2018

Additional Remarks

ARPT CLSD TO TSNT ACFT EXCP 3 HRS PPR.
TWY A OUTER 18 FT OF EACH SIDE OF TWY IS ASPH, CENTER 39 FT IS CONC. PVMT IN POOR CONDITION.
HEAVY HELICOPTER ACTIVITY IN AREA.
FOR CD CTC REGIONAL APCH AT 972-615-2799.
260 FT AGL TWR 0.7 NM NW RY 17 END.

Instrument Procedures

NOTE: All procedures below are presented as PDF files. If you need a reader for these files, you should download the free Adobe Reader.

NOT FOR NAVIGATION. Please procure official charts for flight.
FAA instrument procedures published for use from 15 July 2021 at 0901Z to 12 August 2021 at 0900z.

 
IAPs - Instrument Approach Procedures
RNAV (GPS) RWY 17   download (239KB)
RNAV (GPS) RWY 35   download (228KB)
NOTE: Special Take-Off Minimums/Departure Procedures apply   download (167KB)

Other nearby airports with instrument procedures:

KAFW - Fort Worth Alliance Airport (9 nm E)
KFTW - Fort Worth Meacham International Airport (12 nm SE)
KNFW - Fort Worth Naval Air Station JRB (Carswell Field) Airport (13 nm S)
KWEA - Parker County Airport (17 nm SW)
KLUD - Decatur Municipal Airport (17 nm N)
KDTO - Denton Enterprise Airport (20 nm NE)
 
Loc | Ops | Rwys | IFR | FBO | Links
Com | Nav | Svcs | Stats | Notes

City of Fort Worth
 
Area around 4T2 (Kenneth Copeland Airport)
 
Road maps at: MapQuest Bing Google
 
Aerial photo
WARNING: Photo may not be current or correct
Aerial photo of 4T2 (Kenneth Copeland Airport)
Photo taken 31-May-2007
from the northwest

Do you have a better or more recent aerial photo of Kenneth Copeland Airport that you would like to share? If so, please send us your photo.

 
Sectional chart

 
Airport distance calculator
Flying to Kenneth Copeland Airport? Find the distance to fly.

From to 4T2

Sunrise and sunset
Times for 24-Jul-2021
 Local
(UTC-5)
 Zulu
(UTC)
Morning civil twilight06:1111:11
Sunrise06:3911:39
Sunset20:3401:34
Evening civil twilight21:0102:01

Current date and time
Zulu (UTC)  24-Jul-2021 05:57:16
Local (UTC-5)  24-Jul-2021 00:57:16
 
METAR
KAFW 
9nm E 
240553Z 17012KT 10SM CLR 28/21 A3002 RMK AO2 SLP148 T02830211 10333 20283 403500244 50005
KFTW 
11nm SE 
240553Z 15011KT 10SM CLR 28/22 A3002 RMK AO2 SLP155 T02780217 10328 20278 403560233 51007
KNFW 
13nm S 
240552Z AUTO 15010KT 10SM CLR 29/22 A3003 RMK AO2 SLP151 T02890217 10344 20289 403610244 51008 $
KLUD 
17nm N 
118.22 940-927-2365
240535Z AUTO 14007KT 10SM CLR 28/20 A3003 RMK AO2 T02780200
KDTO 
20nm NE 
231853Z 21011KT 10SM SCT041 BKN049 32/23 A3008 RMK AO2 SLP176 T03220228
TAF
KAFW 
9nm E 
240256Z 2403/2424 16011KT P6SM SKC FM241300 18009KT P6SM SCT015 FM241600 19011G21KT P6SM SCT050
KFTW 
11nm SE 
240256Z 2403/2424 16009KT P6SM SKC FM241300 18009KT P6SM SCT015 FM241600 19011G21KT P6SM SCT050
KNFW 
13nm S 
2323/2423 18012KT 9999 FEW060 QNH2995INS FM241000 18006KT 9999 SCT016 QNH3000INS FM241600 18012G20KT 9999 FEW060 QNH2993INS AUTOMATED SENSOR METWATCH 2404 TIL 2411 T26/2412Z T37/2422Z FN20048
NOTAMs
Click for the latest NOTAMs
NOTAMs are issued by the DoD/FAA and will open in a separate window not controlled by AirNav.

 

 
 

Would you like to see your business listed on this page?

 If your business provides an interesting product or service to pilots, flight crews, aircraft, or users of the Kenneth Copeland Airport, you should consider listing it here.  To start the listing process, click on the button below
 
Add a business
 

Other Pages about Kenneth Copeland Airport

Update a link
 
Copyright © AirNav, LLC. All rights reserved. Privacy Policy  Contact